Miscellaneous Local Product
Issued by NWS Hastings, NE

Home | Current Version | Previous Version | Text Only | Print | Product List | Glossary Off
Versions: 1 2 3 4 5 6 7 8 9 10 11 12 13 14 15 16 17 18 19 20 21 22 23 24 25 26 27 28 29 30 31 32 33 34 35 36 37 38 39 40 41 42 43 44 45 46 47 48 49 50

000
AXUS43 KGID 190102
MISGRI

GID CWA HOURLY WEATHER ROUNDUP
NATIONAL WEATHER SERVICE HASTINGS NE
800 PM CDT THU SEP 18 2014

NOTE: "FAIR" INDICATES FEW OR NO CLOUDS BELOW 12,000 FEET WITH NO
SIGNIFICANT WEATHER AND/OR OBSTRUCTIONS TO VISIBILITY.

...SOUTH CENTRAL NEBRASKA...

CITY           SKY/WX    TMP DP  RH WIND       PRES   REMARKS
GRAND ISLAND   CLEAR     69  64  84 SE7       29.90F
HASTINGS       CLEAR     71  62  73 SE8       29.90S
KEARNEY        CLEAR     66  63  88 E6        29.90F
ORD            CLOUDY    70  64  81 S8        29.88S
YORK           CLEAR     68  66  94 SE7       29.92S
AURORA         CLEAR     68  65  89 SE6       29.90F
LEXINGTON      PTCLDY    66  64  93 SE5       29.90F FOG
HOLDREGE       CLEAR     67  64  91 CALM      29.90S
HEBRON         CLEAR     72  63  72 SE5       29.91S

...NEBRASKA PANHANDLE...

CITY           SKY/WX    TMP DP  RH WIND       PRES   REMARKS
CHADRON        PTCLDY    82  60  47 S18       29.75S
ALLIANCE       CLEAR     74  61  63 S17       29.85S
SCOTTSBLUFF    CLEAR     77  50  38 E10       29.83R
SIDNEY         CLEAR     76  60  57 SE14      29.91S

...WESTERN AND NORTH CENTRAL NEBRASKA...

CITY           SKY/WX    TMP DP  RH WIND       PRES   REMARKS
VALENTINE      CLEAR     73  62  68 S15       29.82S
AINSWORTH      CLEAR     69  61  75 S12       29.85S
ONEILL         CLEAR     71  62  74 S9        29.87F
BROKEN BOW     CLOUDY    69  64  84 S10       29.90S
IMPERIAL       CLEAR     67  61  81 E7        29.90S
NORTH PLATTE   CLOUDY    67  61  81 S8        29.90S
MCCOOK         CLEAR     66  61  84 E6        29.89F

...EASTERN NEBRASKA...

CITY           SKY/WX    TMP DP  RH WIND       PRES   REMARKS
NORFOLK        CLEAR     68  59  73 SE8       29.91S
SO SIOUX CITY  CLEAR     68  56  65 SE8       29.94S
TEKAMAH        CLEAR     66  58  75 SE8       29.95S
ALBION         CLEAR     69  63  81 S7        29.90F
OMAHA EPPLEY   PTCLDY    68  54  60 SE10      29.97R
OFFUTT AFB     CLEAR     64  61  90 E8        29.96S
MILLARD        CLEAR     67  57  70 SE6       29.96R
LINCOLN        CLEAR     70  59  68 SE15      29.95R
NEBRASKA CITY  CLEAR     64  55  72 S9        29.98S
BEATRICE       PTCLDY    66  61  84 SE13      29.95S
FALLS CITY     CLOUDY    64  60  87 SE7       29.99R

...NORTHERN KANSAS...

CITY           SKY/WX    TMP DP  RH WIND       PRES   REMARKS
GOODLAND       CLEAR     74  61  63 E10       29.91S
HILL CITY      CLEAR     73  67  81 NE5       29.87S
NORTON         CLEAR     68  61  77 NE3       29.87
PHILLIPSBURG   CLEAR     75  64  69 E6        29.86S
SMITH CENTER   CLEAR     73  61  64 E10       29.88R
BELOIT         CLEAR     77  63  61 E9        29.87S
HAYS           CLEAR     79  63  57 S13       29.87S
RUSSELL        CLEAR     76  61  59 SE10      29.87R
CONCORDIA      CLEAR     72  66  81 SE10      29.91R
SALINA         CLEAR     76  66  71 SE13      29.91R
TOPEKA         CLEAR     65  63  93 E3        29.99R



USA.gov is the U.S. government's official web portal to all federal, state and local government web resources and services.